Regional Weather Roundup
Issued by NWS Midland/Odessa, TX

Home | Current Version | Previous Version | Text Only | Print | Product List | Glossary On
Versions: 1 2 3 4 5 6 7 8 9 10 11 12 13 14 15 16 17 18 19 20 21 22 23 24 25 26 27 28 29 30 31 32 33 34 35 36 37 38 39 40 41 42 43 44 45 46 47 48 49 50
000
ASUS44 KMAF 182110
RWRMAF
MIDLAND AREA WEATHER ROUNDUP
NATIONAL WEATHER SERVICE MIDLAND TX
400 PM CDT THU SEP 18 2014

...IN SOUTHWEST TEXAS AND SOUTHEAST NEW MEXICO...

CITY           SKY/WX    TMP DP  RH WIND       PRES   REMARKS
ALPINE         PTSUNNY   76  64  66 SE6       30.01F
ANDREWS        CLOUDY    74  68  80 E12       29.94F
ARTESIA        NOT AVBL
BIG SPRING     PTSUNNY   76  70  82 NE20      29.95F
CARLSBAD       CLOUDY    76  71  85 E3        29.93F
DRYDEN           N/A     92  68  45 E13       29.83F
FORT STOCKTON  MOSUNNY   86  67  52 NE8       29.87F
GUAD PASS      PTSUNNY   73  63  70 E13       30.05F
HOBBS          PTSUNNY   73  68  83 NE10      29.98F
MARFA          PTSUNNY   81  63  54 S7        29.99F
MIDLAND AIRPK  PTSUNNY   78  69  74 NE13      29.93F
MIDLAND INTL   PTSUNNY   78  68  71 NE14      29.91F
ODESSA         LGT RAIN  74  69  85 NE13      29.93F
PECOS          PTSUNNY   83  66  55 NW3       29.86F
PRESIDIO       FAIR      94  63  35 S5        29.81F
SEMINOLE       CLOUDY    73  66  78 E8        29.97F
SNYDER         CLOUDY    68  67  97 NE13      29.96F
WINK           CLOUDY    83  69  62 NE17      29.87F
$$
...OTHER STATIONS IN TEXAS...

CITY           SKY/WX    TMP DP  RH WIND       PRES   REMARKS
ABILENE        LGT RAIN  69  68  96 N15       29.94R FOG
AMARILLO       CLOUDY    73  62  68 SE15      30.02F
AUSTIN         CLOUDY    89  71  55 VRB6      29.81F
BROWNSVILLE    MOSUNNY   90  77  65 SE16G22   29.77F HX 103
CORPUS CHRISTI PTSUNNY   89  76  65 SE18G25   29.77F HX 100
DALLAS FTW     CLOUDY    85  71  63 NE14      29.85F
DEL RIO        MOSUNNY   90  70  51 SE10      29.77F
EL PASO        LGT RAIN  71  65  81 N10       29.94F
HOUSTON INT    CLOUDY    81  76  84 SE12      29.85F
LUBBOCK        CLOUDY    71  65  81 SE15      29.98F
SAN ANGELO     CLOUDY    88  65  46 E5        29.85F
SAN ANTONIO    PTSUNNY   94  68  42 SE12      29.80F
WACO           CLOUDY    82  72  71 E8        29.85F
WICHITA FALLS  NOT AVBL
$$
...OTHER LOCATIONS IN NEW MEXICO...

CITY           SKY/WX    TMP DP  RH WIND       PRES   REMARKS
ALAMAGORDO     LGT RAIN  68  66  94 NW5       29.99F
ALBUQUERQUE    MOSUNNY   80  50  34 SW8       30.00F
CANNON AFB     PTSUNNY   68  64  87 SE16      30.02F
CLOVIS           N/A     70  63  78 SE14G22   30.05F
HOLLOMAN AFB   CLOUDY    68  64  88 CALM      29.98F
ROSWELL        CLOUDY    77  62  59 CALM      29.95F
RUIDOSO        LGT RAIN  57  57 100 SW5       30.14F
SANTA FE       SUNNY     82  35  18 W5        30.03F
TRUTH OR CONSE PTSUNNY   67  60  78 S7        30.01F
TUCUMCARI      CLOUDY    76  61  59 SE15      29.97F
$$



USA.gov is the U.S. government's official web portal to all federal, state and local government web resources and services.